SPACECUBE (42717 NORAD) Tracking and Keplerian Element Data

This shows tracking and keplerian element data for the satellite.

Feedback or suggestion? Click here.




ElementValue
Catalog42717
NameSPACECUBE
Epoch Orbit10157
Epoch Day59.6057734
Epoch Year2019
RAAN100.2529
Inclination51.602
Eccentricity0.0001466
Argument of Perigee12.7224
Mean Anonmoly347.7311
Mean Motion16.41511985
Decay Rate0.11886658
L11 42717U 98067LY 19059.60577340 .11886658 12464-4 71601-3 0 9999
L22 42717 51.6020 100.2529 0001466 12.7224 347.7311 16.41511985101572

Live tracking and technical data element details for SPACECUBE (NORAD 42717). SPACECUBE can be tracked NOW for your location showing map with azimuth and elevation plus other details from your city location.

Track the satellite on the map from your city or location and see movement details for azimuth, elevation, latitude, longitude, range, height, and movement on the map or in text.







IsCatalogInMostPopularTable: catalog: 42717, numindb: 205
Update: records affected: 1



GetName: 42717 SPACECUBE

Hit Count: updated at: Sat, 23 Mar 2019 03:02:42 GMT